Regional Weather Roundup
Issued by NWS

Home | Current Version | Previous Version | Text Only | Print | Product List | Glossary On
Versions: 1 2 3 4 5 6 7 8 9 10 11 12 13 14 15 16 17 18 19 20 21 22 23 24 25 26 27 28 29 30 31 32 33 34 35 36 37 38 39 40 41 42 43 44 45 46 47 48 49 50
908
ASUS44 KLIX 200005
RWRLA
LOUISIANA WEATHER ROUNDUP
NATIONAL WEATHER SERVICE NEW ORLEANS LA
700 PM CDT TUE AUG 19 2014

NOTE: "FAIR" INDICATES FEW OR NO CLOUDS BELOW 12,000 FEET WITH NO
      SIGNIFICANT WEATHER AND/OR OBSTRUCTIONS TO VISIBILITY.
      SKY/WX - SKY CONDITION AND SIGNIFICANT WEATHER.
      TMP - AIR TEMPERATURE.    DP   - DEWPOINT TEMPERATURE.
      RH  - RELATIVE HUMIDITY.  PRES - PRESSURE.
      HX  - HEAT INDEX.         WCI  - WIND CHILL INDEX.

*  THESE STATIONS ARE NOT NWS OR FAA STATIONS AND ARE NOT UNDER
   NWS QUALITY CONTROL.

LAZ040-048-061>063-065-066-069-200100-
SOUTHEAST LOUISIANA

CITY           SKY/WX    TMP DP  RH WIND       PRES   REMARKS
N.O. AUDUBON     N/A     87  76  69 MISG        N/A  HX  97
6HR MIN TEMP:  84; 6HR MAX TEMP:  88;

N.O. INTL ARPT CLOUDY    84  75  74 SW5       29.95F
6HR MIN TEMP:  80; 6HR MAX TEMP:  94; 6HR PCP:  0.14;

N.O. LAKEFRONT CLOUDY    86  73  65 SW8       29.94F
6HR MIN TEMP:  84; 6HR MAX TEMP:  92; 6HR PCP:  0.01;

N.O. DOWNTOWN* FAIR      88  72  58 SW5       29.95F
6HR MIN TEMP:  88; 6HR MAX TEMP:  97;

SLIDELL        CLOUDY    84  71  65 CALM      29.94S
6HR MIN TEMP:  84; 6HR MAX TEMP:  93;

BATON ROUGE    CLOUDY    81  70  69 W6        29.95S
6HR MIN TEMP:  81; 6HR MAX TEMP:  95;

BOOTHVILLE     CLEAR     86  76  71 SW8       29.97F HX  96
6HR MIN TEMP:  86; 6HR MAX TEMP:  89;

BELLE CHASSE   CLOUDY    82  75  79 CALM      29.94F
6HR MIN TEMP:  76; 6HR MAX TEMP:  94;

BOGALUSA*      FAIR      83  75  76 CALM      29.95S
6HR MIN TEMP:  83; 6HR MAX TEMP:  95; 6HR PCP:  0.01;

GALLIANO*      NOT AVBL
NEW ROADS*     FAIR      77  73  86 W3        29.95F
GONZALES*      FAIR      82  76  80 W5        29.95S
6HR MIN TEMP:  82; 6HR MAX TEMP:  91; 6HR PCP:  0.19;

HAMMOND*       MOCLDY    82  72  69 CALM      29.96S
HOUMA*         PTCLDY    84  73  70 SW7       29.95F
PORT FOURCHON* CLEAR     88  75  66 SW7       29.98S HX  97

$$

LAZ041-044-053-054-200100-
SOUTHWEST LOUISIANA

CITY           SKY/WX    TMP DP  RH WIND       PRES   REMARKS
LAKE CHARLES   CLOUDY    79  74  84 SE6       29.93F
6HR MIN TEMP:  73; 6HR MAX TEMP:  90; 6HR PCP:  2.17;

LAFAYETTE      CLOUDY    77  73  87 NE3       29.96R
6HR MIN TEMP:  75; 6HR MAX TEMP:  93; 6HR PCP:  1.22;

PATTERSON      CLOUDY   N/A N/A N/A MISG        N/A
SALT POINT       N/A     86  77  74 CALM      29.95S HX  97
6HR MIN TEMP:  86; 6HR MAX TEMP:  93; 6HR PCP:  0.08;

NEW IBERIA     CLOUDY    81  72  74 CALM      29.96S
6HR MIN TEMP:  79; 6HR MAX TEMP:  94; 6HR PCP: TRACE;

CHENAULT AIRPK MOCLDY    77  72  83 CALM      29.95S

$$

LAZ027-028-200100-
CENTRAL LOUISIANA

CITY           SKY/WX    TMP DP  RH WIND       PRES   REMARKS
FORT POLK      CLOUDY    77  72  84 CALM      29.95S
6HR MIN TEMP:  77; 6HR MAX TEMP:  93; 6HR PCP: TRACE;

ALEXANDRIA INT CLOUDY    81  73  76 SW5       29.93F
6HR MIN TEMP:  81; 6HR MAX TEMP:  96; 6HR PCP: TRACE;

ALEXANDRIA     CLOUDY    79  74  84 SW3       29.94F
6HR MIN TEMP:  79; 6HR MAX TEMP:  95; 6HR PCP:  0.10;


$$

LAZ001-002-200100-
NORTHWEST LOUISIANA

CITY           SKY/WX    TMP DP  RH WIND       PRES   REMARKS
SHREVEPORT     PTSUNNY   79  70  74 SW10G26   29.92R
6HR MIN TEMP:  79; 6HR MAX TEMP:  95;

BARKSDALE AFB  PTSUNNY   84  67  56 SW12      29.92R
6HR MIN TEMP:  84; 6HR MAX TEMP:  95;

DTN SHREVEPORT PTSUNNY   83  67  58 SW22G33   29.92R
6HR MIN TEMP:  83; 6HR MAX TEMP:  95;


$$

LAZ014-016-200100-
NORTHEAST LOUISIANA

CITY           SKY/WX    TMP DP  RH WIND       PRES   REMARKS
MONROE         PTCLDY    89  74  60 S5        29.93R HX  98
6HR MIN TEMP:  89; 6HR MAX TEMP:  93;

TALLULAH       PTCLDY    87  74  64 S6        29.93R HX  95
6HR MIN TEMP:  87; 6HR MAX TEMP:  92;


$$




USA.gov is the U.S. government's official web portal to all federal, state and local government web resources and services.